• Join FlightAware (Why Join?)
  • Login
  • US Flag 
02:34AM EDT


 

Airport Tracker/Info


-or-


 

Live Flight TrackerFlight Track Log ✈ RPA3457 ✈ 18-Apr-2013 ✈ KBTV - KDCA

Flight Track Log - Related Links

Times and Time Zones

All times are in EDT time to prevent confusion due to time zone crossing. See the RPA3457 flight status page for this flight to view local times or setup timezone preferences in your user account.

Time Position Orientation Groundspeed Altitude Reporting Facility
EDT Latitude Longitude Course Direction KTS MPH feet Rate Location/Type
07:58AM 44.1650 -73.2632 195° South  Level FlightAware Approximate
07:59AM 44.0638 -73.3009 194° South  Level FlightAware Approximate
07:59AM 44.2756 -73.1939 198° South 250 288 8,900  Level Boston Center
08:00AM 43.9620 -73.3349 194° South  Level FlightAware Approximate
08:00AM 44.2025 -73.2250 197° South 264 304 11,400  Level Boston Center
08:01AM 43.8606 -73.3711 195° South  Level FlightAware Approximate
08:01AM 44.1167 -73.2583 196° South 302 348 14,100  Level Boston Center
08:02AM 43.7595 -73.4090 195° South  Level FlightAware Approximate
08:02AM 44.0331 -73.2947 197° South 319 367 16,900  Level Boston Center
08:03AM 43.6584 -73.4469 195° South  Level FlightAware Approximate
08:03AM 43.9411 -73.3311 196° South 338 389 18,700  Level Boston Center
08:04AM 43.5588 -73.4915 198° South  Level FlightAware Approximate
08:04AM 43.8614 -73.3903 208° Southwest 338 389 20,800  Level Boston Center
08:05AM 43.7817 -73.4667 215° Southwest 350 403 22,900 1,980 Climbing Boston Center
08:06AM 43.6975 -73.5428 213° Southwest 359 413 24,800 1,620 Climbing Boston Center
08:07AM 43.6178 -73.6072 210° Southwest 364 419 26,200 1,380 Climbing Boston Center
08:08AM 43.5092 -73.6425 193° South 383 441 27,600 1,260 Climbing Boston Center
08:09AM 43.3964 -73.6631 188° South 393 452 28,800 1,200 Climbing Boston Center
08:10AM 43.2814 -73.6892 189° South 410 472 30,000 600 Climbing Boston Center
08:11AM 43.1644 -73.7153 189° South 423 487 30,000  Level Boston Center
08:12AM 43.0453 -73.7411 189° South 433 498 30,000  Level Boston Center
08:13AM 42.9303 -73.7672 189° South 433 498 30,000  Level Boston Center
08:14AM 42.8050 -73.7928 189° South 428 493 30,000  Level Boston Center
08:15AM 42.6839 -73.8014 183° South 428 493 30,000  Level Boston Center
08:16AM 42.5800 -73.7794 171° South 428 493 30,000  Level Boston Center
08:17AM 42.4614 -73.7628 174° South 421 484 30,000  Level Boston Center
08:18AM 42.3408 -73.7461 174° South 426 490 30,000  Level Boston Center
08:19AM 42.2203 -73.7242 172° South 431 496 30,000  Level Boston Center
08:20AM 42.0911 -73.6992 172° South 425 489 30,000  Level Boston Center
08:21AM 41.9808 -73.6828 174° South 430 495 30,000  Level Boston Center
08:22AM 41.8647 -73.6361 163° South 436 502 30,000  Level Boston Center
08:23AM 41.7483 -73.5947 165° South 441 507 30,000  Level Boston Center
08:24AM 41.6381 -73.5872 177° South 424 488 30,000  Level Boston Center
08:26AM 41.4322 -73.5825 179° South 377 434 30,000  Level New York Center
08:27AM 41.3303 -73.5839 181° South 372 428 30,000  Level New York Center
08:28AM 41.2411 -73.6492 209° Southwest 355 409 30,000  Level New York Center
08:29AM 41.1736 -73.7647 232° Southwest 364 419 30,000  Level New York Center
08:30AM 41.1039 -73.8856 233° Southwest 393 452 30,000  Level New York Center
08:31AM 41.0342 -74.0033 232° Southwest 406 467 30,000  Level New York Center
08:32AM 40.9664 -74.1181 232° Southwest 411 473 30,000  Level New York Center
08:33AM 40.9008 -74.2164 229° Southwest 406 467 30,000 -540 Level New York Center
08:34AM 40.8331 -74.3308 232° Southwest 406 467 29,000 -1,020 Descending New York Center
08:35AM 40.7650 -74.4425 231° Southwest 406 467 28,000 -540 Descending New York Center
08:36AM 40.6903 -74.5644 231° Southwest 395 455 28,000  Level New York Center
08:37AM 40.6261 -74.6756 233° Southwest 395 455 28,000 -300 Level New York Center
08:38AM 40.5558 -74.7836 229° Southwest 395 455 27,500 -840 Descending New York Center
08:39AM 40.4836 -74.8858 227° Southwest 389 448 26,400 -1,140 Descending New York Center
08:40AM 40.4133 -74.9853 227° Southwest 382 440 25,300 -1,080 Descending New York Center
08:41AM 40.3433 -75.0817 226° Southwest 376 433 24,300 -1,020 Descending New York Center
08:42AM 40.2769 -75.1808 229° Southwest 376 433 23,300 -1,020 Descending New York Center
08:43AM 40.2111 -75.2719 227° Southwest 365 420 22,300 -660 Descending New York Center
08:44AM 40.1431 -75.3625 226° Southwest 360 414 22,000 -180 Descending New York Center
08:45AM 40.0744 -75.4611 228° Southwest 360 414 22,000  Level New York Center
08:46AM 40.0081 -75.5569 228° Southwest 360 414 22,000  Level New York Center
08:47AM 39.9433 -75.6581 230° Southwest 365 420 22,000  Level New York Center
08:48AM 39.8808 -75.7592 231° Southwest 370 426 22,000  Level New York Center
08:49AM 39.8161 -75.8600 230° Southwest 370 426 22,000 -600 Level New York Center
08:50AM 39.7511 -75.9606 230° Southwest 365 420 20,800 -1,560 Descending New York Center
08:51AM 39.6933 -76.0428 228° Southwest 358 412 19,000 -1,740 Descending New York Center
08:52AM 39.6258 -76.1508 231° Southwest 353 406 17,400 -1,800 Descending New York Center
08:53AM 39.5722 -76.2331 230° Southwest 352 405 15,400 -1,920 Descending New York Center
08:54AM 39.5000 -76.3500 231° Southwest 314 361 13,400 -1,620 Descending Potomac TRACON
08:55AM 39.4333 -76.4333 224° Southwest 297 342 12,000 -780 Descending Potomac TRACON
08:56AM 39.3833 -76.4833 218° Southwest 296 341 12,000 -120 Level Potomac TRACON
08:57AM 39.3000 -76.5500 212° Southwest 283 326 11,800 -300 Descending Potomac TRACON
08:58AM 39.2500 -76.5833 207° Southwest 233 268 11,500 -480 Descending Potomac TRACON
08:59AM 39.2000 -76.6333 218° Southwest 206 237 11,000 -300 Descending Potomac TRACON
09:00AM 39.1500 -76.6500 194° South 228 262 11,000  Level Potomac TRACON
09:01AM 39.1833 -76.7500 293° West 320 368 11,000  Level Potomac TRACON
09:02AM 39.2500 -76.7000 30° Northeast 300 345 11,000  Level Potomac TRACON
09:03AM 39.3000 -76.6500 38° Northeast 267 307 11,000  Level Potomac TRACON
09:04AM 39.3333 -76.5667 63° Northeast 277 319 11,000  Level Potomac TRACON
09:05AM 39.2667 -76.5833 191° South 220 253 11,000  Level Potomac TRACON
09:06AM 39.2167 -76.6167 207° Southwest 215 247 11,000  Level Potomac TRACON
09:07AM 39.1667 -76.6500 207° Southwest 214 246 11,000  Level Potomac TRACON
09:08AM 39.2167 -76.7167 314° West 256 295 11,000  Level Potomac TRACON
09:08AM 39.2833 -76.6667 30° Northeast 255 293 11,100  Climbing Potomac TRACON
09:09AM 39.3333 -76.6167 38° Northeast 258 297 11,100 -120 Level Potomac TRACON
09:10AM 39.3500 -76.5500 72° East 274 315 10,900 -480 Descending Potomac TRACON
09:11AM 39.3000 -76.5500 180° South 211 243 10,200 -480 Descending Potomac TRACON
09:12AM 39.2500 -76.5833 207° Southwest 208 239 10,000 -120 Descending Potomac TRACON
09:13AM 39.2000 -76.6333 218° Southwest 207 238 10,000  Level Potomac TRACON
09:14AM 39.1667 -76.6833 229° Southwest 207 238 10,000  Level Potomac TRACON
09:15AM 39.1167 -76.7333 218° Southwest 210 242 10,000 -360 Level Potomac TRACON
09:16AM 39.0833 -76.7667 218° Southwest 207 238 9,400 -960 Descending Potomac TRACON
09:17AM 39.0333 -76.8167 218° Southwest 206 237 8,200 -1,320 Descending Potomac TRACON
09:18AM 39.0000 -76.8667 229° Southwest 211 243 6,800 -1,140 Descending Potomac TRACON
09:19AM 38.9667 -76.9333 237° Southwest 205 236 6,000 -420 Descending Potomac TRACON
09:20AM 38.9667 -77.0000 270° West 194 223 6,000  Level Potomac TRACON